Temp
21 21 23 24 25 27 24 22 24 23 22 21 21 21 20 19 19 19 14 13 14 14 13 13 13 13 14 14 14 14 14 14 14 14 14 14 14 14 14 14 14 14 14 14 14 14 14 14 14
22 23 24 26 19 26 22 23 22 21 20 20 20 20 20 18 17 15 14 13 14 13 12 13 13 12 13 13 14 14 14 14 14 13 13 13 14 14 14 14 14 14 14 14 14 14 14 15 15
22 23 26 27 26 26 23 24 21 20 19 21 20 20 19 17 17 15 13 13 13 12 12 13 12 12 12 13 13 14 13 13 13 13 13 14 13 13 14 14 14 14 14 14 14 14 14 14 15
24 25 26 26 24 23 23 21 19 18 18 19 20 18 16 16 16 14 13 12 12 12 13 12 12 12 12 12 13 13 13 13 13 13 13 13 13 13 13 13 13 14 14 14 14 14 14 15 15
24 26 28 26 23 23 22 19 19 21 20 20 20 19 16 15 14 13 13 13 12 12 12 12 12 12 12 12 13 13 12 13 13 12 12 12 12 12 13 13 13 13 13 14 14 14 14 14 15
26 26 28 27 21 21 21 19 19 21 20 19 19 18 17 15 15 14 13 12 12 12 11 12 12 12 12 12 13 13 13 12 12 11 12 12 12 12 12 13 13 13 13 13 13 14 14 14 14
27 29 28 25 21 19 20 20 21 21 21 20 20 20 16 15 15 14 13 13 12 12 11 10 10 11 12 12 12 12 12 12 11 11 11 11 12 12 12 12 13 13 13 13 13 13 13 14 14
25 28 27 26 22 22 21 20 21 22 21 19 19 21 17 16 14 14 14 13 13 12 11 10 10 10 11 11 11 11 11 11 11 11 11 12 11 12 12 13 13 13 13 13 13 13 13 13 13
24 28 28 27 25 23 20 21 20 19 19 19 18 19 18 15 14 14 14 13 12 12 11 11 10 10 10 9 11 10 11 11 11 10 11 10 10 10 10 12 12 12 12 13 13 13 13 13 13
25 29 27 27 26 23 20 22 20 19 20 19 17 16 16 15 15 15 15 15 14 13 12 11 10 10 10 10 9 10 10 9 9 9 9 10 10 10 10 11 11 11 11 11 11 11 11 11 12
26 27 25 24 23 22 21 23 20 22 21 21 19 17 15 15 15 16 16 15 14 12 12 11 10 10 10 10 11 11 10 10 9 9 9 9 9 10 11 11 11 11 10 11 11 11 11 10 10
25 24 24 23 22 22 23 22 21 22 23 21 19 17 16 16 16 16 16 15 14 12 11 11 10 11 10 11 11 10 10 10 9 8 9 9 9 10 10 10 10 11 11 10 10 11 10 10 10
25 23 22 22 22 22 22 22 22 22 20 20 18 17 16 16 16 16 16 15 14 12 11 11 10 9 10 10 9 9 9 9 9 8 9 9 9 9 10 10 10 10 10 10 10 10 10 11 11
24 23 22 22 22 21 22 22 21 22 19 19 17 17 17 17 16 15 15 14 13 12 11 10 9 9 10 10 9 9 9 9 9 8 8 8 8 9 9 9 9 9 9 9 9 9 10 10 10
23 23 23 22 21 21 21 22 22 21 19 18 18 17 17 17 16 15 15 14 14 12 11 10 9 9 9 9 9 9 9 9 9 8 9 8 8 8 9 9 9 9 9 9 9 9 10 10 10
24 24 24 23 22 21 22 25 23 20 19 19 18 18 18 17 17 16 15 15 14 13 11 10 10 9 9 9 9 9 9 9 9 9 8 8 8 7 9 9 8 8 9 8 8 9 9 9 10
25 26 25 23 23 23 22 26 24 20 20 20 19 19 18 18 17 16 15 15 14 12 11 10 10 9 9 8 9 9 8 9 9 9 8 8 8 8 8 8 7 8 8 8 7 7 8 8 9
26 25 26 25 24 24 24 24 25 21 20 21 20 20 19 18 17 16 15 15 14 12 11 11 10 9 9 8 8 9 9 9 9 9 8 8 8 8 7 8 7 7 7 7 6 6 7 8 8
27 27 26 26 26 24 24 25 26 23 22 21 22 20 20 19 18 17 15 14 14 12 11 11 10 9 9 9 10 10 10 9 9 8 8 9 9 9 9 7 7 8 6 6 6 6 6 7 7
26 26 26 26 24 24 25 25 27 26 23 22 22 22 21 20 19 17 15 14 13 12 11 11 11 10 9 10 10 11 10 10 9 8 9 9 8 8 7 8 8 8 7 7 7 7 6 5 6
25 25 26 25 24 23 24 25 26 27 26 23 22 22 22 21 19 18 16 14 13 13 11 11 11 10 9 10 10 10 10 9 9 8 7 8 8 8 8 8 8 8 7 7 6 5 5 4 5
24 25 25 24 23 25 25 25 27 27 26 25 23 22 22 21 20 19 16 14 13 13 12 11 11 11 10 10 10 10 10 11 10 9 7 7 8 8 7 7 7 7 6 6 5 4 4 4 4
22 23 24 24 24 24 25 24 27 26 25 25 24 23 22 21 20 19 17 15 14 13 12 11 11 11 10 10 10 10 10 11 9 7 8 7 8 7 7 7 7 6 4 4 4 3 3 2 2
22 23 23 23 23 21 24 24 26 25 25 25 24 23 22 21 20 19 18 16 15 13 12 11 11 11 10 10 9 10 10 10 9 7 6 6 5 4 5 5 5 3 3 3 3 2 1 1 1
22 22 20 20 21 20 23 22 25 24 23 23 22 21 21 21 20 19 18 17 15 14 12 11 11 11 10 10 9 9 9 9 8 8 7 6 6 5 4 4 3 2 2 1 1 0 0 0 -0
22 23 20 19 21 23 22 22 22 23 22 22 21 20 19 19 18 18 18 17 16 15 13 11 11 11 11 10 9 9 9 8 8 7 7 6 6 5 3 3 2 1 1 0 -0 -1 -0 -1 -1
22 20 22 21 20 20 22 24 22 24 23 22 21 20 19 18 17 17 17 17 16 15 13 12 12 11 11 10 9 8 8 8 7 6 5 5 4 4 3 1 1 1 0 -0 -1 -1 -1 -1 -1
20 21 20 20 15 18 22 22 23 22 22 22 21 19 18 18 17 17 17 17 16 16 14 12 11 12 11 9 8 8 7 6 5 5 4 4 3 2 2 1 1 0 0 -0 -0 -1 -1 -1 -1
19 20 20 20 20 19 19 22 23 23 23 22 20 18 16 15 14 14 14 14 15 15 15 13 11 11 10 8 7 6 6 5 5 4 3 3 2 2 1 1 0 0 0 -0 -0 -1 -1 -1 -1
20 21 20 17 18 18 19 20 21 22 21 19 18 16 14 13 12 11 11 11 11 12 13 12 11 11 8 7 6 5 4 4 3 3 3 2 1 1 1 1 0 0 -0 -1 -1 -1 -1 -1 -1
Height
1535 1535 1534 1528 1533 1517 1540 1548 1541 1549 1553 1556 1557 1554 1562 1567 1566 1575 1584 1584 1586 1586 1584 1579 1578 1577 1576 1576 1575 1575 1574 1574 1573 1573 1572 1571 1569 1568 1567 1566 1565 1565 1563 1563 1562 1561 1561 1560 1559
1537 1537 1531 1521 1548 1522 1550 1548 1550 1555 1559 1561 1561 1561 1564 1573 1575 1579 1583 1585 1587 1583 1582 1580 1580 1579 1578 1578 1577 1577 1576 1575 1574 1574 1574 1572 1571 1569 1568 1567 1566 1566 1565 1563 1563 1562 1562 1561 1561
1535 1536 1527 1520 1521 1525 1545 1543 1554 1561 1562 1561 1564 1564 1569 1575 1578 1580 1583 1584 1585 1584 1583 1582 1582 1581 1580 1579 1578 1577 1577 1576 1576 1575 1574 1573 1572 1571 1570 1568 1567 1566 1565 1565 1564 1564 1563 1562 1562
1537 1532 1528 1523 1538 1541 1542 1554 1562 1563 1564 1564 1564 1569 1575 1577 1579 1581 1583 1583 1584 1584 1583 1582 1582 1582 1581 1580 1579 1578 1577 1576 1576 1576 1575 1574 1573 1572 1570 1569 1568 1568 1567 1566 1565 1564 1564 1563 1562
1536 1529 1516 1529 1544 1544 1549 1558 1563 1561 1563 1564 1565 1569 1575 1579 1581 1582 1584 1585 1585 1585 1583 1583 1583 1582 1581 1580 1580 1579 1579 1578 1578 1577 1576 1575 1574 1573 1571 1570 1569 1568 1567 1566 1565 1564 1563 1563 1562
1530 1527 1515 1521 1550 1551 1554 1558 1560 1560 1564 1568 1567 1571 1577 1580 1582 1584 1585 1585 1584 1584 1584 1583 1583 1582 1582 1581 1579 1579 1578 1578 1577 1577 1576 1575 1574 1573 1571 1570 1569 1568 1567 1565 1564 1563 1562 1562 1562
1529 1518 1515 1527 1548 1556 1556 1556 1557 1558 1562 1566 1569 1570 1578 1581 1582 1584 1585 1586 1586 1586 1586 1585 1585 1582 1581 1580 1579 1578 1578 1578 1578 1577 1577 1576 1575 1574 1572 1571 1569 1568 1567 1565 1564 1563 1562 1561 1561
1533 1522 1520 1524 1544 1546 1553 1558 1558 1558 1561 1568 1569 1568 1578 1580 1583 1584 1586 1586 1587 1587 1587 1586 1586 1584 1582 1581 1580 1579 1579 1579 1579 1578 1577 1576 1575 1573 1572 1571 1569 1568 1566 1565 1564 1563 1562 1562 1561
1535 1520 1512 1524 1535 1542 1554 1556 1560 1561 1564 1568 1571 1571 1574 1579 1582 1585 1586 1586 1586 1586 1587 1586 1585 1583 1583 1583 1581 1581 1580 1580 1579 1579 1578 1578 1577 1577 1574 1572 1570 1569 1567 1566 1564 1563 1562 1561 1561
1532 1512 1517 1524 1529 1542 1553 1553 1560 1563 1565 1567 1571 1573 1576 1579 1582 1584 1585 1586 1587 1586 1587 1586 1584 1584 1585 1586 1584 1583 1583 1582 1581 1580 1580 1580 1578 1577 1577 1574 1572 1571 1569 1568 1566 1564 1563 1562 1561
1530 1524 1533 1537 1539 1545 1551 1551 1559 1558 1561 1562 1567 1571 1576 1579 1582 1583 1584 1585 1586 1586 1587 1587 1583 1583 1586 1585 1587 1588 1586 1585 1583 1581 1582 1580 1581 1580 1580 1578 1577 1575 1572 1571 1570 1567 1565 1563 1561
1535 1537 1536 1542 1544 1546 1549 1552 1557 1557 1555 1561 1566 1571 1575 1579 1581 1582 1584 1585 1586 1586 1586 1586 1584 1584 1584 1588 1589 1588 1588 1587 1586 1584 1585 1584 1583 1583 1581 1580 1579 1578 1575 1572 1571 1570 1568 1566 1563
1535 1539 1542 1546 1547 1549 1552 1555 1556 1557 1562 1564 1568 1572 1575 1578 1580 1582 1583 1585 1586 1587 1587 1587 1585 1585 1585 1587 1587 1588 1589 1588 1588 1586 1584 1585 1585 1584 1584 1582 1581 1579 1578 1575 1573 1570 1569 1567 1566
1538 1541 1545 1546 1548 1552 1552 1554 1557 1557 1564 1566 1570 1573 1575 1578 1580 1582 1584 1584 1585 1586 1586 1587 1586 1585 1585 1586 1587 1588 1589 1590 1589 1588 1587 1586 1586 1586 1586 1584 1583 1581 1579 1577 1575 1572 1570 1568 1567
1541 1542 1545 1546 1549 1551 1551 1553 1553 1556 1563 1567 1568 1571 1573 1577 1579 1581 1583 1585 1585 1585 1585 1586 1586 1586 1586 1587 1589 1590 1592 1592 1591 1590 1588 1587 1587 1587 1587 1586 1584 1583 1581 1579 1577 1574 1571 1569 1567
1540 1539 1540 1543 1547 1549 1551 1532 1545 1555 1559 1563 1567 1568 1570 1573 1576 1579 1581 1583 1584 1585 1585 1585 1587 1587 1589 1589 1591 1592 1592 1593 1593 1593 1591 1589 1588 1587 1589 1588 1585 1584 1583 1580 1577 1574 1571 1569 1567
1534 1527 1529 1542 1544 1544 1547 1529 1539 1551 1555 1558 1562 1565 1567 1570 1573 1576 1578 1580 1582 1584 1585 1586 1587 1588 1589 1589 1592 1592 1592 1594 1594 1594 1593 1590 1589 1588 1589 1588 1586 1586 1584 1580 1577 1574 1572 1569 1567
1525 1528 1524 1530 1537 1539 1539 1536 1535 1546 1549 1550 1556 1559 1563 1566 1570 1574 1576 1578 1581 1581 1584 1585 1587 1587 1588 1590 1591 1593 1594 1595 1595 1595 1592 1591 1591 1589 1589 1588 1586 1585 1583 1580 1577 1574 1573 1570 1567
1513 1518 1522 1522 1526 1536 1534 1529 1526 1536 1543 1544 1547 1553 1557 1561 1566 1570 1573 1575 1578 1579 1582 1583 1585 1586 1587 1589 1592 1594 1595 1595 1595 1594 1592 1591 1591 1588 1588 1588 1586 1584 1583 1579 1577 1574 1572 1570 1567
1519 1520 1521 1520 1532 1536 1526 1525 1521 1523 1533 1538 1541 1544 1551 1556 1561 1566 1570 1572 1574 1576 1579 1581 1583 1584 1586 1589 1592 1593 1595 1595 1594 1592 1590 1590 1590 1589 1588 1586 1584 1582 1581 1578 1575 1572 1570 1569 1566
1525 1525 1520 1528 1531 1536 1531 1525 1515 1515 1521 1532 1537 1540 1544 1550 1556 1560 1565 1569 1571 1574 1576 1578 1580 1582 1585 1589 1590 1591 1592 1592 1593 1592 1591 1590 1589 1588 1586 1585 1583 1581 1580 1577 1574 1572 1569 1567 1566
1532 1525 1527 1529 1536 1531 1527 1528 1505 1507 1514 1523 1532 1536 1541 1545 1551 1555 1560 1565 1568 1571 1573 1576 1578 1580 1583 1585 1588 1590 1590 1592 1592 1592 1590 1588 1588 1587 1585 1583 1581 1579 1578 1575 1573 1571 1568 1565 1564
1539 1535 1532 1531 1532 1531 1524 1534 1506 1511 1519 1521 1527 1532 1535 1539 1544 1549 1555 1560 1565 1568 1571 1573 1576 1578 1580 1582 1585 1587 1589 1591 1591 1590 1588 1587 1585 1585 1583 1581 1579 1577 1575 1573 1570 1568 1566 1564 1562
1540 1538 1537 1536 1536 1548 1525 1529 1508 1513 1519 1521 1525 1528 1530 1533 1538 1544 1551 1557 1561 1565 1568 1570 1573 1576 1578 1579 1581 1584 1587 1589 1589 1589 1589 1588 1585 1583 1580 1579 1577 1575 1573 1571 1569 1566 1564 1562 1560
1540 1541 1553 1554 1550 1552 1532 1535 1518 1523 1528 1530 1531 1531 1531 1531 1535 1542 1548 1553 1558 1562 1565 1567 1570 1573 1576 1578 1579 1582 1584 1586 1587 1587 1587 1587 1586 1585 1581 1577 1575 1574 1571 1569 1566 1564 1562 1560 1557
1539 1537 1552 1563 1545 1533 1533 1535 1527 1527 1531 1532 1534 1534 1534 1535 1537 1541 1545 1550 1555 1559 1562 1564 1566 1570 1574 1576 1577 1580 1582 1584 1585 1584 1586 1585 1584 1583 1577 1575 1574 1572 1569 1567 1564 1561 1559 1557 1554
1535 1547 1536 1543 1546 1549 1531 1520 1527 1525 1528 1531 1535 1538 1539 1539 1540 1542 1544 1548 1551 1554 1558 1561 1565 1568 1571 1573 1575 1578 1580 1582 1582 1582 1581 1581 1580 1580 1576 1573 1571 1569 1567 1565 1562 1559 1557 1554 1551
1540 1539 1547 1546 1576 1559 1533 1527 1517 1527 1529 1533 1537 1540 1543 1543 1543 1543 1544 1545 1548 1551 1556 1559 1564 1568 1571 1572 1574 1576 1578 1579 1579 1578 1579 1578 1577 1575 1573 1571 1569 1567 1565 1562 1559 1556 1553 1551 1548
1542 1542 1542 1543 1544 1552 1548 1531 1521 1521 1527 1533 1538 1543 1545 1545 1545 1544 1544 1545 1546 1549 1553 1557 1562 1567 1569 1571 1573 1574 1575 1575 1576 1577 1576 1575 1574 1572 1571 1569 1566 1564 1561 1559 1555 1552 1549 1546 1543
1532 1531 1534 1552 1552 1546 1545 1539 1528 1528 1534 1540 1542 1544 1546 1546 1546 1545 1545 1545 1546 1548 1552 1555 1560 1566 1566 1570 1573 1574 1573 1574 1574 1575 1574 1573 1571 1569 1568 1566 1563 1560 1557 1554 1551 1547 1544 1541 1537
Wind_Speed
13 4 6 11 6 4 11 4 12 10 10 11 9 15 16 13 8 7 7 7 8 7 7 9 11 10 9 7 6 6 6 5 5 6 7 7 8 8 8 7 7 7 5 3 3 4 5 7 8
5 4 10 10 4 9 7 9 10 9 13 14 13 12 10 7 13 15 9 7 8 6 7 7 10 11 10 8 7 6 6 5 7 8 8 7 8 8 7 6 6 6 6 5 2 3 4 5 7
4 4 13 4 7 9 10 12 10 11 10 5 5 11 7 9 8 8 7 7 7 7 7 8 10 11 9 9 7 6 6 6 6 6 5 6 8 8 8 8 7 6 6 6 5 4 5 5 5
4 7 4 4 7 5 9 11 14 11 6 1 10 9 9 8 7 9 9 8 8 8 4 6 5 7 7 7 6 5 3 3 2 3 4 6 7 8 9 9 8 8 8 8 7 6 6 6 6
4 6 5 6 8 13 13 17 13 9 8 9 7 7 11 10 12 11 8 6 5 6 3 4 5 7 7 8 7 6 4 3 3 3 5 6 8 8 8 9 8 7 7 8 8 9 8 7 7
11 7 8 10 9 8 12 15 12 8 8 5 5 14 9 13 12 10 8 6 4 2 2 5 4 7 8 9 7 4 2 2 2 3 4 5 6 7 8 8 8 8 7 7 7 7 8 8 9
16 9 6 10 12 11 10 13 12 11 11 7 12 9 9 14 13 10 7 6 5 5 3 4 5 9 9 7 5 4 3 3 3 4 4 6 7 8 8 8 9 9 9 8 9 8 8 8 8
12 9 3 7 12 9 15 12 8 11 11 8 6 3 9 17 13 10 8 6 6 5 4 4 4 5 5 7 7 8 7 6 5 5 6 7 11 11 9 9 9 10 10 9 10 10 10 9 9
6 7 5 6 11 12 17 13 10 3 11 7 6 2 13 17 14 11 8 6 5 4 4 3 3 4 6 7 8 10 10 11 11 11 10 11 8 9 12 14 13 14 12 13 12 11 10 8 13
8 9 14 7 9 14 19 14 13 10 11 9 9 9 17 17 14 11 8 5 4 4 4 3 5 5 6 5 7 9 9 9 8 9 10 10 13 15 13 17 19 21 20 22 22 20 17 13 10
1 9 8 6 3 17 18 12 11 11 11 14 14 19 18 16 13 10 8 5 5 6 5 4 5 6 7 6 6 5 6 7 10 13 12 13 12 12 11 13 13 14 18 16 15 16 16 17 15
6 5 5 6 9 15 13 13 9 11 7 11 13 20 18 16 13 10 7 6 7 7 7 7 6 7 10 7 6 7 7 9 10 12 12 13 12 13 14 14 14 15 16 17 16 15 17 16 16
9 9 11 12 10 10 8 10 7 12 3 8 15 19 17 15 12 9 7 8 8 8 8 7 7 7 8 9 8 9 9 10 11 12 13 12 12 14 14 15 15 16 16 17 17 16 15 14 14
10 12 13 11 11 8 9 9 6 10 8 13 17 17 15 14 12 9 8 9 9 9 9 8 7 8 9 9 10 10 10 10 10 11 12 14 13 13 14 14 14 15 16 16 16 17 17 16 15
15 14 10 10 11 10 8 10 11 14 15 16 18 16 15 14 12 10 9 9 10 10 11 10 8 8 9 10 10 9 9 9 9 10 13 14 12 13 13 13 14 14 15 16 16 16 15 15 16
10 11 9 11 12 8 9 12 18 16 19 18 17 17 17 16 14 11 10 10 11 11 12 11 9 9 9 9 8 7 8 7 7 6 8 10 12 12 11 12 14 15 15 16 17 17 17 15 16
12 10 12 12 16 11 14 4 19 19 20 19 19 19 18 17 16 13 13 13 12 13 13 12 11 10 9 9 7 7 8 5 5 6 5 9 11 12 11 11 13 13 13 15 18 18 18 18 18
14 15 8 11 17 13 16 15 13 18 21 21 21 21 20 19 18 16 14 14 14 14 14 13 12 11 11 9 7 5 5 4 4 4 3 8 8 11 10 10 13 13 14 15 18 19 17 16 18
10 10 9 9 12 13 15 15 15 19 21 21 21 22 21 20 18 18 17 16 16 15 16 15 14 14 12 9 7 6 5 5 3 2 3 5 6 8 9 9 11 16 13 17 18 18 17 16 17
11 8 9 7 7 10 14 17 16 17 22 22 22 22 21 20 19 19 19 19 19 18 18 17 15 16 14 10 9 7 6 5 4 3 1 2 5 7 9 12 13 17 14 17 21 22 20 15 16
7 9 5 8 9 12 13 18 19 16 19 20 21 19 20 20 21 23 23 22 20 20 20 18 17 16 16 12 10 9 8 7 4 2 1 3 5 9 11 13 15 17 16 18 19 19 19 16 14
10 4 9 4 7 6 8 10 10 7 12 18 19 19 21 21 22 24 25 24 23 21 20 19 18 17 16 15 12 12 9 7 7 6 5 6 8 10 12 14 15 16 16 18 16 15 17 16 15
4 5 6 6 9 9 11 7 4 8 8 9 12 16 20 24 25 25 26 25 24 22 21 20 19 18 17 16 15 13 11 9 6 6 6 8 11 10 12 14 16 16 13 16 16 17 17 15 15
1 2 3 5 8 9 14 5 1 6 7 2 3 3 10 20 25 24 24 24 24 24 22 20 20 19 18 17 16 14 12 10 9 7 5 5 5 7 12 12 14 13 16 16 16 16 14 14 14
9 6 5 6 7 8 3 4 4 7 6 6 5 7 4 6 17 22 23 24 24 25 23 21 20 20 19 18 15 14 13 12 11 10 7 8 7 6 8 13 12 13 15 15 15 15 13 12 14
11 12 6 6 6 2 4 5 5 6 6 8 11 12 12 6 5 16 21 23 23 24 24 23 22 20 19 17 15 13 12 11 10 10 9 6 7 7 12 12 13 13 13 14 14 15 13 13 14
6 6 5 8 4 6 9 5 6 4 8 10 13 14 15 11 5 4 13 20 23 25 26 25 22 20 19 17 15 13 12 11 9 9 7 6 7 6 9 12 13 14 14 16 16 16 16 15 16
6 3 4 3 1 8 8 6 3 9 9 8 10 11 11 10 7 3 3 11 20 22 23 23 21 19 18 15 14 12 11 9 8 7 5 6 6 9 11 12 13 15 17 18 18 19 18 19 20
6 8 5 3 5 4 8 4 6 9 6 6 9 9 9 8 7 6 2 1 8 16 19 20 19 17 16 15 12 11 9 7 6 3 4 6 8 10 11 14 16 18 19 20 21 22 23 23 24
7 10 12 4 6 4 5 6 2 6 6 4 8 8 8 9 8 8 6 5 4 7 12 13 15 15 15 11 10 10 7 4 2 2 5 8 10 12 13 17 19 21 22 23 24 25 25 26 28
Wind_Direction
138 160 298 259 262 103 122 92 105 122 88 76 87 76 80 45 18 75 127 96 70 73 86 24 38 40 46 53 54 52 47 48 48 48 45 40 37 37 40 41 36 33 44 59 43 43 46 47 47
161 267 272 261 334 144 106 152 111 81 110 99 91 107 77 77 90 114 99 93 87 59 76 42 38 35 40 44 48 50 49 52 55 53 48 41 39 31 25 27 24 14 19 23 7 345 7 20 29
141 287 291 328 351 53 136 139 116 116 133 133 107 83 82 115 118 124 119 118 102 82 66 25 30 25 29 36 43 49 51 60 72 77 58 44 37 27 23 16 7 357 359 0 359 344 330 340 359
240 226 192 29 70 49 130 133 138 149 151 176 126 96 100 112 120 135 135 120 97 82 49 22 17 17 17 19 22 38 65 75 82 69 45 37 27 24 24 16 6 359 350 344 340 339 333 323 319
239 267 210 89 80 96 118 142 160 171 141 150 153 112 117 129 125 124 119 119 105 90 6 356 357 346 358 4 9 9 18 22 22 29 20 20 17 15 12 7 6 1 353 348 341 335 331 326 320
254 261 249 163 127 131 131 159 168 179 146 149 162 131 122 149 139 133 137 119 110 72 31 355 337 341 345 345 347 353 10 23 10 28 17 10 5 360 359 2 0 360 356 350 340 332 330 330 325
274 270 11 78 150 172 168 175 179 166 153 153 143 137 139 157 156 144 125 111 113 102 100 73 41 356 349 354 15 37 49 47 28 17 5 2 359 354 352 349 346 346 344 342 341 337 331 325 324
285 278 188 136 165 165 164 173 188 175 138 127 175 156 166 165 152 139 137 122 117 107 86 75 46 19 14 22 49 57 54 49 40 25 14 14 18 5 4 358 357 355 350 344 335 330 327 328 329
288 256 181 129 182 131 151 172 174 103 137 169 154 52 149 161 154 153 145 133 115 107 114 104 50 56 54 46 50 52 55 49 45 36 44 49 47 48 36 33 29 26 22 18 7 358 349 6 356
276 283 53 21 54 149 168 182 163 174 159 171 158 137 151 154 160 163 164 162 152 144 130 99 94 74 71 70 64 53 56 59 67 55 67 46 49 46 37 30 32 26 37 24 21 24 24 17 11
39 29 90 65 74 149 168 167 168 187 185 181 172 159 160 164 170 173 172 172 168 149 135 90 83 94 91 95 84 73 65 65 51 60 64 58 56 54 43 37 31 30 24 27 29 18 19 17 20
136 66 87 96 133 154 168 141 169 203 126 172 171 166 167 173 177 177 174 167 154 144 132 123 109 96 111 94 88 75 79 70 67 71 60 55 53 47 44 43 35 32 29 29 29 21 19 19 14
105 108 113 123 132 152 149 160 186 214 149 166 161 168 175 179 180 176 171 161 157 151 139 129 110 97 91 97 94 94 87 86 73 64 68 62 57 50 46 40 36 31 28 24 22 21 18 14 9
127 134 130 143 132 143 184 153 228 162 160 157 165 177 182 185 184 178 175 171 164 161 150 137 119 110 108 115 109 96 90 80 77 70 66 58 58 54 42 36 31 27 22 22 17 18 14 11 6
136 138 145 158 162 158 208 182 207 152 169 172 179 183 186 191 192 193 186 182 173 167 163 150 134 123 119 108 104 107 103 91 79 68 67 63 60 43 43 30 25 22 16 17 13 13 10 5 3
175 174 175 166 169 153 217 199 185 171 176 184 191 192 193 195 196 196 188 188 183 176 168 158 157 143 127 129 114 115 109 103 93 77 61 58 51 49 36 29 20 23 14 10 10 5 3 0 359
195 221 225 167 196 157 212 127 155 181 189 194 198 202 202 200 200 197 192 190 184 186 178 170 166 156 146 140 144 142 121 109 96 77 52 48 36 37 42 24 19 21 14 9 9 5 359 358 351
186 241 196 197 192 217 204 246 149 189 200 205 203 208 206 207 205 202 196 192 189 190 186 180 176 176 165 164 154 151 141 116 98 82 51 53 28 31 44 20 17 22 7 8 5 4 357 356 345
301 239 207 218 151 211 231 237 229 187 207 213 210 211 211 211 209 205 200 197 193 197 193 188 186 189 181 179 169 172 167 158 128 91 62 49 36 31 31 22 13 15 7 0 359 358 354 353 346
252 231 230 155 137 230 251 242 233 205 207 216 217 215 217 211 209 206 205 201 195 201 196 195 192 194 188 188 183 185 187 172 184 157 147 16 8 14 9 10 5 2 4 353 353 351 354 348 353
240 251 222 263 170 236 279 268 245 221 215 209 226 229 221 216 212 208 208 206 203 202 199 198 195 196 194 192 195 189 190 191 186 185 125 312 332 349 357 354 354 355 353 349 348 343 348 343 346
261 247 307 189 224 275 191 299 178 198 205 199 218 223 231 223 219 215 211 210 207 205 203 199 198 198 199 197 202 201 202 210 214 197 209 284 307 328 339 342 342 344 347 341 342 336 341 340 338
13 323 271 251 258 316 240 257 179 131 188 204 218 234 230 229 222 217 213 212 211 207 205 200 200 199 200 206 198 215 212 222 221 214 255 263 292 311 322 330 334 337 342 334 336 334 336 337 331
12 221 230 258 265 264 265 233 260 102 49 134 100 249 236 227 222 217 214 211 211 208 204 201 200 202 203 206 209 209 216 217 221 228 246 259 264 301 313 329 333 336 331 327 329 329 330 326 322
220 222 254 231 215 255 48 254 352 74 60 35 36 28 346 227 211 214 212 211 211 208 205 203 202 204 207 209 209 206 211 217 223 235 252 251 278 290 290 321 323 326 324 325 325 325 322 321 312
216 233 221 262 284 241 145 248 90 88 88 87 70 60 58 79 183 211 215 215 214 212 209 206 205 204 207 207 204 207 209 216 224 237 242 257 268 281 290 309 319 322 322 319 318 321 313 312 308
173 226 298 281 263 283 272 203 182 155 127 108 84 68 61 62 73 197 219 220 219 217 214 212 207 207 207 205 202 205 208 211 219 220 239 258 269 293 309 313 319 319 316 311 310 311 307 304 303
275 38 217 219 228 260 261 254 273 161 136 111 71 59 49 47 48 62 207 224 223 222 219 214 212 212 209 201 199 202 202 204 207 233 245 258 284 303 307 312 314 314 312 309 304 302 302 299 298
187 220 220 274 237 268 279 279 5 136 131 85 61 36 31 36 39 45 57 202 219 219 218 209 210 210 203 193 192 191 183 187 226 220 265 294 295 306 305 309 310 311 310 309 306 301 300 299 295
298 239 215 199 223 240 287 268 192 118 126 49 17 54 61 58 53 55 64 79 120 173 192 191 194 198 189 184 178 172 168 182 212 304 306 303 304 310 310 308 307 307 306 307 305 303 300 298 296